This is the latest recevied weather packets stored in our database for station/object AB8Y-13. If no packets are shown the sender has not sent any weather packets the latest 10 day(s).
| Time | Temp. | Humidity | Pressure | Rain* | Wind** | Luminosity | Snow |
|---|---|---|---|---|---|---|---|
| 1777726980 | 5.56° C | 62% | 1018.7 hPa | 0 mm | - | 352 W/m² | - |
| 1777726677 | 5.56° C | 59% | 1018.9 hPa | 0 mm | - | 332 W/m² | - |
| 1777726374 | 5.56° C | 61% | 1018.8 hPa | 0 mm | - | 313 W/m² | - |
| 1777726070 | 5.56° C | 65% | 1018.8 hPa | 0 mm | - | 294 W/m² | - |
| 1777725767 | 5° C | 66% | 1018.9 hPa | 0 mm | - | 313 W/m² | - |
| 1777725466 | 5° C | 65% | 1018.9 hPa | 0 mm | - | 253 W/m² | - |
| 1777725163 | 4.44° C | 66% | 1018.9 hPa | 0 mm | - | 220 W/m² | - |
| 1777724859 | 4.44° C | 69% | 1018.8 hPa | 0 mm | - | 184 W/m² | - |
| 1777724555 | 3.89° C | 69% | 1018.7 hPa | 0 mm | - | 158 W/m² | - |
| 1777724254 | 3.89° C | 69% | 1018.9 hPa | 0 mm | - | 135 W/m² | - |
| 1777723952 | 3.89° C | 71% | 1018.9 hPa | 0 mm | - | 115 W/m² | - |
| 1777723648 | 3.33° C | 73% | 1018.8 hPa | 0 mm | - | 103 W/m² | - |
| 1777723344 | 2.78° C | 75% | 1018.7 hPa | 0 mm | - | 102 W/m² | - |
| 1777723042 | 2.78° C | 76% | 1018.8 hPa | 0 mm | - | 102 W/m² | - |
| 1777722739 | 2.22° C | 75% | 1018.8 hPa | 0 mm | - | 83 W/m² | - |
| 1777722435 | 2.22° C | 81% | 1018.9 hPa | 0 mm | - | 77 W/m² | - |
| 1777722132 | 1.67° C | 87% | 1018.6 hPa | 0 mm | - | 92 W/m² | - |
| 1777721829 | 1.11° C | 95% | 1018.6 hPa | 0 mm | - | 83 W/m² | - |
| 1777721527 | 0.56° C | 95% | 1018.6 hPa | 0 mm | - | 68 W/m² | - |
| 1777721225 | -0.56° C | 95% | 1018.6 hPa | 0 mm | - | 66 W/m² | - |
| 1777720922 | -0.56° C | 95% | 1018.7 hPa | 0 mm | - | 34 W/m² | - |
| 1777720619 | -1.11° C | 95% | 1018.6 hPa | 0 mm | - | 38 W/m² | - |
| 1777720317 | -1.11° C | 95% | 1018.6 hPa | 0 mm | - | 35 W/m² | - |
| 1777720015 | -1.67° C | 94% | 1018.7 hPa | 0 mm | - | 24 W/m² | - |
| 1777719712 | -1.67° C | 94% | 1018.4 hPa | 0 mm | - | 21 W/m² | - |
* Rain latest hour (hover to see other rain measurements)
** Current wind speed in m/s (hover to see current wind gust speed)